Regional Weather Roundup
Issued by NWS

Home | Current Version | Previous Version | Text Only | Print | Product List | Glossary Off
Versions: 1 2 3 4 5 6 7 8 9 10 11 12 13 14 15 16 17 18 19 20 21 22 23 24 25 26 27 28 29 30 31 32 33 34 35 36 37 38 39 40 41 42 43 44 45 46 47 48 49 50

866
ASUS44 KJAN 302210
RWRMS

MISSISSIPPI HOURLY WEATHER ROUNDUP
NATIONAL WEATHER SERVICE JACKSON MS
500 PM CDT THU OCT 30 2014

NOTE: "FAIR: INDICATES FEW OR NO CLOUDS BELOW 12,000 FEET WITH NO
SIGNIFICANT WEATHER AND/OR OBSTRUCTIONS TO VISIBILITY.

MSZ001>002-007>008-010>013-018>021-025>028-034>036-302300-
NORTHWEST MISSISSIPPI

CITY           SKY/WX    TMP DP  RH WIND       PRES   REMARKS
CLARKSDALE     FAIR      70  46  43 CALM      30.05S
CLEVELAND      FAIR      71  45  38 CALM      30.04S
GREENWOOD      SUNNY     70  44  39 CALM      30.05F
GREENVILLE     SUNNY     71  44  37 SW5       30.04S
GRENADA        FAIR      70  39  32 E3        30.05F
OLIVE BRANCH   MOSUNNY   66  39  37 CALM      30.05F
OXFORD         FAIR      64  37  36 CALM      30.07S
TUNICA         CLEAR     66  41  39 S3        30.05S
$$

MSZ003>006-009-014>017-022>024-029>033-037>039-302300-
NORTHEAST MISSISSIPPI

CITY           SKY/WX    TMP DP  RH WIND       PRES   REMARKS
COLUMBUS AFB   SUNNY     67  36  32 N9        30.04F
CORINTH        FAIR      66  37  34 NW3       30.04S
GOLDN TRIANGLE SUNNY     68  36  30 NW7       30.04
STARKVILLE     FAIR      68  36  30 CALM      30.04F
TUPELO         SUNNY     67  37  33 N6        30.04F
$$

MSZ040-058-302300-
CENTRAL MISSISSIPPI

CITY           SKY/WX    TMP DP  RH WIND       PRES   REMARKS
JACKSON INTL   MOSUNNY   72  40  31 N8        30.04F
JACKSON HAWKNS SUNNY     71  40  32 VRB5      30.05F
MERIDIAN KEY   SUNNY     69  34  27 N10       30.03S
MERIDIAN NAS   MOSUNNY   69  32  25 N9        30.04S
RAYMOND        FAIR      72  66  83 CALM      30.05F
VICKSBURG      SUNNY     72  42  34 NE3       30.06S
$$

MSZ059>079-302300-
SOUTH MISSISSIPPI

CITY           SKY/WX    TMP DP  RH WIND       PRES   REMARKS
BROOKHAVEN     FAIR      72  39  30 NW5       30.06S
COLUMBIA         N/A     70  37  30 MISG      30.02S
HATTIESBURG    SUNNY     72  38  29 N7        30.04S
MCCOMB         SUNNY     73  36  25 N7        30.04S
NATCHEZ        SUNNY     70  45  40 N7        30.06F
PINE BELT      SUNNY     72  36  26 N8        30.06R
$$

MSZ080>082-302300-
COASTAL MISSISSIPPI

CITY           SKY/WX    TMP DP  RH WIND       PRES   REMARKS
BAY ST LOUIS   SUNNY     73  28  19 N7        30.01F
BILOXI         SUNNY     72  40  30 N7        30.00S
PASCAGOULA     SUNNY     72  37  28 N7        30.00S
GULFPORT       SUNNY     73  36  25 N9        30.00S
$$



USA.gov is the U.S. government's official web portal to all federal, state and local government web resources and services.